SCP
0 0 0 0 0 1 1 1 1 0 0 0 0 0 0 0 0 0 0 0 0 0 0 0 0 0 0 0 0 0 0 0 0 0 0 0 0 0
0 1 1 0 1 1 1 1 1 1 0 0 0 0 0 0 0 0 0 0 0 0 0 0 0 0 0 0 0 0 0 0 0 0 0 0 0 0
0 1 1 1 1 1 1 1 1 1 0 0 1 1 1 0 0 0 0 0 0 0 0 0 0 0 0 0 0 0 0 0 0 0 0 0 0 0
0 0 1 1 1 1 1 1 1 1 0 0 0 1 1 1 1 0 0 0 0 0 0 0 0 0 0 0 0 0 0 0 0 0 0 0 0 0
0 0 0 1 1 1 1 1 1 1 0 0 1 1 1 1 1 0 0 0 0 0 0 0 0 0 0 0 0 -0 -0 0 0 0 0 0 0 0
1 0 0 0 0 0 0 1 1 1 1 1 1 1 1 1 1 0 0 0 0 0 0 0 0 0 0 0 0 -0 -0 -0 0 0 0 0 0 0
1 1 0 0 0 0 0 0 0 1 1 1 0 1 1 1 1 1 0 0 0 0 0 0 0 0 0 0 0 0 0 0 0 0 0 0 0 0
1 1 0 0 0 0 0 0 0 0 0 0 0 0 1 1 1 1 0 0 0 0 0 0 0 0 0 0 0 0 0 0 -0 0 0 0 0 0
1 0 0 0 0 0 0 0 0 0 0 0 0 0 1 1 1 1 0 0 0 0 0 0 0 0 0 0 0 0 0 0 0 0 0 0 0 0
0 0 0 0 0 0 0 0 0 0 0 0 0 0 0 1 1 1 0 0 0 0 0 0 0 0 0 0 0 0 0 0 0 0 0 0 0 0
0 0 0 0 0 0 0 0 0 0 0 0 0 0 0 0 0 0 0 0 0 0 0 0 0 0 0 0 0 0 0 0 0 0 0 0 0 0
0 0 0 0 0 0 0 0 0 0 0 0 0 0 0 0 0 0 0 0 0 0 0 0 0 0 0 0 0 0 0 0 0 0 0 0 0 0
1 0 0 0 0 0 0 0 0 0 0 0 0 0 0 0 0 0 0 0 0 0 0 0 0 0 0 0 0 0 0 0 0 0 0 0 0 0
1 0 0 0 0 0 0 0 0 0 0 0 0 0 0 0 0 0 0 0 0 0 0 0 0 0 0 0 0 0 0 0 0 0 0 0 0 0
0 0 0 0 0 0 0 0 0 0 0 0 0 0 0 0 0 0 0 0 0 0 0 0 0 0 0 0 0 0 0 0 0 0 0 0 0 0
0 0 0 0 0 0 0 0 0 0 0 0 0 0 0 0 0 0 0 0 0 0 0 0 0 0 0 0 0 0 0 0 0 0 0 0 0 0
0 0 0 0 0 0 0 0 0 0 0 0 0 0 0 0 0 0 0 0 0 0 0 0 0 0 0 0 0 0 0 0 0 0 0 0 0 0
0 0 0 0 0 0 0 0 0 0 0 0 0 0 0 0 0 0 0 0 0 0 0 0 0 0 0 0 0 0 0 0 0 0 0 0 0 0
0 0 0 0 0 0 0 0 0 0 0 0 0 0 0 0 0 0 0 0 0 0 0 0 0 0 0 0 0 0 0 0 0 0 0 0 0 0
0 0 0 0 0 0 0 0 0 0 0 0 0 0 0 0 0 0 0 0 0 0 0 0 0 0 0 0 0 0 0 0 0 0 0 0 0 0
0 0 0 0 0 0 0 0 0 0 0 0 0 0 0 0 0 0 0 0 0 0 0 0 0 0 0 0 0 0 0 0 0 0 0 0 0 0
0 0 0 0 0 0 0 0 0 0 0 0 0 0 0 0 0 0 0 0 0 0 0 0 0 0 0 0 0 0 0 0 0 0 0 0 0 0
0 0 0 0 0 0 0 0 0 0 0 0 0 0 0 0 0 0 0 0 0 0 0 0 0 0 0 0 0 0 0 0 0 0 0 0 0 0
Wind_Speed
4 4 4 3 3 3 4 4 5 5 4 3 3 2 2 2 2 4 4 4 5 5 5 5 5 5 6 6 6 6 6 6 6 7 8 9 9 10
3 3 4 3 3 3 4 4 4 5 4 2 2 1 1 3 3 4 4 5 6 6 6 6 5 5 5 5 5 6 6 6 7 7 7 8 9 9
4 4 4 4 4 3 4 4 4 4 5 4 3 1 2 4 2 4 4 4 4 7 7 6 5 5 5 5 5 5 6 6 6 7 7 7 7 9
4 4 5 4 4 5 4 4 4 4 5 5 4 3 3 4 4 5 4 4 4 6 8 7 6 6 6 6 6 6 6 6 7 7 7 7 8 8
5 5 5 5 5 4 5 5 4 4 4 5 5 3 3 3 4 4 4 4 5 4 8 8 6 6 5 5 6 6 6 6 7 6 6 6 7 7
5 5 5 6 6 5 5 5 5 5 5 5 5 4 3 3 3 4 4 3 4 3 2 4 5 7 6 5 5 4 5 5 6 6 6 6 6 5
5 5 5 4 4 5 5 4 5 5 5 5 5 5 4 3 3 4 4 3 3 3 3 3 4 4 5 5 5 4 4 5 5 5 5 5 5 4
5 5 4 5 3 4 4 4 5 6 6 5 5 5 5 4 3 4 4 4 3 2 3 3 3 3 3 2 2 4 4 4 4 4 4 4 5 5
5 5 5 2 4 3 4 5 5 5 6 7 6 6 5 4 5 6 4 5 4 3 3 4 3 3 3 1 4 4 4 4 4 4 4 4 5 5
5 5 4 4 3 3 4 4 4 4 5 6 5 6 5 4 5 6 5 5 5 4 3 4 3 3 3 2 6 5 5 5 5 5 5 4 4 5
5 4 4 4 1 2 3 4 4 4 3 2 3 3 3 3 4 5 5 5 4 3 3 4 3 3 3 3 4 8 7 7 6 6 6 5 5 5
3 3 1 1 0 1 3 4 4 4 3 3 4 5 5 5 6 6 5 5 5 4 2 3 3 3 3 3 2 3 4 7 8 8 7 6 5 4
2 2 1 3 2 1 3 3 3 4 4 4 3 3 4 3 4 4 4 5 5 4 1 3 4 3 4 3 2 3 3 3 4 5 7 8 7 6
2 1 1 3 2 1 1 1 2 4 3 3 3 3 3 3 2 3 3 4 5 6 4 4 4 4 4 4 3 2 3 3 3 3 3 6 7 8
0 3 2 2 2 2 2 3 4 3 3 3 3 3 2 2 3 2 3 4 5 5 3 4 5 4 5 5 4 3 3 3 3 3 3 4 4 5
2 3 4 4 3 1 2 2 3 2 3 3 3 2 2 3 3 3 3 3 4 4 3 4 5 5 6 6 5 4 3 3 3 4 3 4 4 4
1 2 2 2 1 1 1 1 2 1 2 3 3 3 3 3 3 3 3 4 4 4 3 3 4 5 6 6 5 5 4 3 3 3 4 4 4 4
2 2 1 1 1 1 1 1 1 2 2 2 3 3 3 3 3 3 3 3 4 4 4 3 3 3 4 4 4 5 4 3 3 3 4 5 5 4
2 1 1 1 1 1 1 1 2 2 2 3 3 3 3 3 3 3 3 3 4 4 4 4 3 4 5 5 3 4 5 4 4 4 4 5 5 4
3 2 2 2 2 2 2 2 2 2 2 3 3 3 3 3 3 4 4 4 4 4 5 4 4 4 5 6 5 4 5 5 4 4 4 4 4 2
2 2 1 2 2 2 2 2 3 3 3 3 3 3 3 3 3 4 4 4 4 5 5 4 4 5 6 5 6 4 3 4 4 5 5 5 4 4
1 1 1 1 2 2 2 3 3 2 3 3 3 3 4 4 4 4 4 4 4 4 5 4 4 4 5 5 6 5 4 3 3 5 6 5 5 5
1 1 1 1 2 2 3 3 4 3 3 3 4 4 4 4 4 4 5 4 4 4 5 5 4 4 5 5 5 4 5 5 4 3 3 4 6 6
Wind_Direction
232 224 242 248 255 259 259 262 269 268 258 224 233 218 240 239 183 223 233 179 194 208 221 226 228 229 235 237 238 237 236 236 235 236 239 235 232 232
256 261 255 256 254 249 248 251 258 266 271 265 246 249 274 265 197 235 236 182 189 204 215 221 220 222 229 234 234 233 234 236 234 233 235 236 233 232
246 247 253 263 262 253 247 248 250 258 260 264 262 242 246 270 251 244 242 232 200 188 202 211 217 223 226 228 231 232 231 233 236 236 238 241 240 235
250 257 259 255 255 261 258 257 256 252 254 262 263 250 239 251 254 254 252 241 241 174 189 203 214 222 227 229 231 231 230 231 233 235 236 240 240 238
247 251 255 258 260 259 257 257 255 247 242 252 255 259 250 248 250 249 254 263 260 191 187 197 208 216 217 220 225 229 230 231 232 232 234 239 240 237
252 257 260 258 258 258 252 254 257 255 246 249 250 248 246 246 252 253 249 238 260 255 213 204 193 199 199 202 213 224 228 230 229 229 230 234 235 232
247 253 259 272 295 280 272 263 258 255 250 249 250 249 246 247 251 256 258 253 242 253 247 229 210 215 204 201 212 226 227 225 224 223 225 224 222 219
251 253 248 232 232 241 257 277 282 267 269 266 260 261 258 251 263 265 265 258 249 232 254 249 237 235 234 223 177 191 206 212 213 210 210 213 212 209
250 252 258 254 247 245 223 222 241 253 255 266 267 269 266 262 263 260 261 263 265 267 250 252 243 241 242 177 143 167 190 201 202 200 202 209 212 211
247 245 249 252 260 265 255 247 245 242 243 246 256 266 274 278 266 265 262 252 250 247 244 255 242 247 250 216 153 168 185 192 195 196 197 203 211 208
244 241 243 247 344 298 255 252 253 247 227 228 265 271 295 286 279 263 254 253 255 244 223 252 252 253 251 235 173 176 188 191 193 197 199 199 202 202
234 223 189 221 91 273 244 249 255 263 262 237 225 227 233 227 229 249 264 264 265 255 201 243 253 254 252 233 224 199 194 189 193 196 195 194 198 222
232 223 146 119 127 230 260 263 274 282 265 257 241 234 231 233 231 235 262 276 278 272 247 238 261 252 258 262 255 239 229 216 205 201 197 195 199 219
233 226 113 121 142 216 248 289 277 266 255 251 255 257 256 257 259 257 255 268 278 278 279 260 265 272 265 262 265 247 236 234 225 218 214 192 205 211
167 78 106 153 178 195 199 230 236 247 258 260 263 269 280 288 279 257 244 248 253 256 255 255 258 260 264 265 259 257 256 248 235 228 219 213 216 214
153 137 163 189 211 172 203 224 247 274 281 279 280 280 280 273 268 271 262 258 259 250 233 242 252 259 260 264 263 254 250 245 239 236 236 232 226 222
135 195 187 175 187 198 230 256 262 255 266 279 281 283 279 279 278 278 277 270 269 273 268 254 246 247 253 260 262 259 252 249 240 230 232 236 231 224
231 213 217 253 256 257 270 265 270 280 279 276 274 275 275 278 282 282 282 281 285 288 287 284 281 273 262 249 250 260 262 264 259 236 237 240 238 230
211 210 230 256 272 272 278 288 291 291 291 287 285 280 275 275 276 278 281 285 285 291 293 289 279 276 274 275 253 243 269 271 267 261 248 247 250 236
219 225 236 250 268 289 296 303 301 295 289 293 292 288 283 279 276 278 279 286 286 283 282 283 283 285 281 282 284 268 245 259 263 263 264 266 268 239
215 224 252 273 285 293 304 304 302 301 308 301 300 299 289 282 282 284 286 285 279 280 284 289 302 289 278 266 263 261 248 224 251 268 265 263 263 249
223 234 276 311 309 307 302 298 298 298 300 294 306 306 298 290 288 286 287 284 280 284 291 296 296 284 279 275 274 277 280 269 242 237 245 266 275 269
203 245 272 283 283 286 295 297 294 296 298 298 300 300 297 296 291 285 285 288 292 290 290 292 291 284 285 279 275 280 286 285 275 265 247 222 228 246